This demonstration page uses our WeatherBlox Daily Observations layout. Learn more.

40.92945, -100.16068

Hourly Observations for December 16, 2015

Temp ( °F °C ) Dew Point ( °F °C ) Humidity (%) Winds ( mph kmh ) Pressure ( in mb ) Visibility ( mi km ) Precip ( " mm )
12:15 am 00:15 Cloudy with Mist and Fog 26 -3.5 23 -5 89 89 NW 18 30 29.65 1004 5 8.0467 N/A
12:35 am 00:35 Cloudy 25 -3.7 22 -5.3 89 89 NW 18 30 29.68 1005 7 11.26538 N/A
12:55 am 00:55 Cloudy with Mist and Fog 25 -4.1 22 -5.8 88 88 NW 18 30 29.68 1005 5 8.0467 N/A
1:15 am 01:15 Cloudy 24 -4.5 21 -6.2 88 88 NW 18 30 29.68 1005 7 11.26538 N/A
1:35 am 01:35 Mostly Cloudy 22 -5.4 19 -7.2 87 87 NW 15 24 29.68 1005 10 16.0934 N/A
1:55 am 01:55 Clear 21 -6 18 -7.8 87 87 NW 18 30 29.71 1006 10 16.0934 N/A
2:35 am 02:35 Clear 20 -6.9 16 -8.9 86 86 WNW 14 22 29.77 1008 10 16.0934 N/A
2:55 am 02:55 Clear 19 -7 16 -9 86 86 WNW 15 24 29.77 1008 10 16.0934 N/A
3:15 am 03:15 Clear 19 -7 16 -9.1 85 85 WNW 13 20 29.77 1008 10 16.0934 N/A
3:35 am 03:35 Clear 19 -7.1 16 -9.1 86 86 WNW 14 22 29.77 1008 10 16.0934 N/A
3:55 am 03:55 Clear 19 -7 16 -9.1 85 85 WNW 13 20 29.8 1009 10 16.0934 N/A
4:15 am 04:15 Clear 19 -7 16 -9.1 85 85 WNW 13 20 29.8 1009 10 16.0934 N/A
4:35 am 04:35 Clear 20 -6.7 16 -9 84 84 WNW 14 22 29.8 1009 10 16.0934 N/A
4:55 am 04:55 Clear 20 -6.6 17 -8.6 86 86 WNW 15 24 29.8 1009 10 16.0934 N/A
5:15 am 05:15 Clear 20 -6.5 17 -8.5 86 86 WNW 10 17 29.83 1010 10 16.0934 N/A
5:35 am 05:35 Clear 21 -6.3 17 -8.3 86 86 WNW 12 19 29.83 1010 10 16.0934 N/A
5:55 am 05:55 Clear 22 -5.5 18 -7.6 85 85 WNW 17 28 29.8 1009 10 16.0934 0 0
6:15 am 06:15 Clear 22 -5.6 18 -8 83 83 WNW 15 24 29.83 1010 10 16.0934 N/A
6:35 am 06:35 Clear 22 -5.7 17 -8.1 83 83 WNW 15 24 29.83 1010 10 16.0934 N/A
6:55 am 06:55 Clear 22 -5.7 18 -8 84 84 WNW 16 26 29.85 1011 10 16.0934 N/A
7:15 am 07:15 Clear 22 -5.6 18 -8 83 83 WNW 12 19 29.85 1011 10 16.0934 N/A
7:35 am 07:35 Clear 22 -5.4 18 -7.6 85 85 WNW 14 22 29.83 1010 10 16.0934 N/A
7:55 am 07:55 Clear 22 -5.5 18 -8 83 83 WNW 13 20 29.83 1010 10 16.0934 N/A
8:15 am 08:15 Sunny 22 -5.5 18 -7.7 85 85 WNW 14 22 29.83 1010 10 16.0934 N/A
8:35 am 08:35 Sunny 23 -5.2 19 -7.5 84 84 WNW 12 19 29.83 1010 10 16.0934 N/A
8:55 am 08:55 Sunny 24 -4.2 20 -6.6 84 84 WNW 13 20 29.83 1010 10 16.0934 N/A
9:15 am 09:15 Sunny 26 -3.5 21 -6 83 83 WNW 15 24 29.85 1011 10 16.0934 N/A
9:35 am 09:35 Sunny 27 -2.8 22 -5.7 81 81 WNW 18 30 29.85 1011 10 16.0934 N/A
9:55 am 09:55 Sunny 27 -2.6 22 -5.6 80 80 WNW 18 30 29.85 1011 10 16.0934 N/A
10:15 am 10:15 Sunny 27 -2.6 22 -5.5 81 81 WNW 18 30 29.85 1011 10 16.0934 N/A
10:35 am 10:35 Sunny 28 -2.5 22 -5.5 80 80 WNW 15 24 29.88 1012 10 16.0934 N/A
10:55 am 10:55 Sunny 28 -2.1 23 -5 81 81 WNW 14 22 29.88 1012 10 16.0934 N/A
11:15 am 11:15 Sunny 29 -1.7 23 -4.8 80 80 WNW 14 22 29.88 1012 10 16.0934 N/A
11:35 am 11:35 Sunny 30 -1.2 24 -4.4 79 79 WNW 13 20 29.85 1011 10 16.0934 N/A
11:55 am 11:55 Sunny 30 -1 25 -4.1 80 80 WNW 14 22 29.85 1011 10 16.0934 N/A
12:15 pm 12:15 Sunny 31 -0.8 25 -4.1 79 79 WNW 18 30 29.85 1011 10 16.0934 N/A
12:35 pm 12:35 Sunny 31 -0.6 25 -4 78 78 WNW 15 24 29.85 1011 10 16.0934 N/A
12:55 pm 12:55 Partly Cloudy 31 -0.5 25 -3.9 78 78 WNW 17 28 29.85 1011 10 16.0934 N/A
1:15 pm 13:15 Partly Cloudy 31 -0.6 25 -4.1 77 77 WNW 18 30 29.85 1011 10 16.0934 N/A
1:35 pm 13:35 Sunny 31 -0.7 24 -4.4 76 76 WNW 18 30 29.85 1011 10 16.0934 N/A
1:55 pm 13:55 Sunny 31 -0.6 24 -4.5 75 75 WNW 17 28 29.88 1012 10 16.0934 N/A
2:15 pm 14:15 Sunny 31 -0.6 24 -4.7 74 74 WNW 15 24 29.85 1011 10 16.0934 N/A
2:35 pm 14:35 Sunny 31 -0.5 24 -4.6 74 74 WNW 13 20 29.85 1011 10 16.0934 N/A
2:55 pm 14:55 Sunny 31 -0.4 24 -4.6 74 74 WNW 14 22 29.88 1012 10 16.0934 N/A
3:15 pm 15:15 Sunny 32 -0.1 24 -4.5 73 73 W 9 15 29.88 1012 10 16.0934 N/A
3:35 pm 15:35 Sunny 32 -0.1 24 -4.2 74 74 W 9 15 29.88 1012 10 16.0934 N/A
3:55 pm 15:55 Sunny 32 0 24 -4.6 71 71 WNW 12 19 29.88 1012 10 16.0934 N/A
4:15 pm 16:15 Sunny 32 -0.2 24 -4.6 73 73 W 9 15 29.88 1012 10 16.0934 N/A
4:35 pm 16:35 Sunny 30 -1 23 -5 75 75 W 9 15 29.88 1012 10 16.0934 N/A
4:55 pm 16:55 Sunny 30 -1 23 -5 75 75 WNW 14 22 29.91 1013 10 16.0934 N/A
5:15 pm 17:15 Clear 30 -1 23 -5 75 75 WNW 14 22 29.91 1013 10 16.0934 N/A
5:35 pm 17:35 Clear 29 -1.6 22 -5.4 76 76 WNW 10 17 29.94 1014 10 16.0934 N/A
5:55 pm 17:55 Clear 28 -2.5 22 -5.6 80 80 WNW 9 15 29.94 1014 10 16.0934 N/A
6:15 pm 18:15 Clear 27 -2.6 22 -5.8 79 79 WNW 12 19 29.97 1015 10 16.0934 N/A
6:35 pm 18:35 Clear 28 -2.4 21 -6 77 77 WNW 13 20 29.97 1015 10 16.0934 N/A
6:55 pm 18:55 Clear 27 -2.6 21 -6.1 77 77 WNW 12 19 29.97 1015 10 16.0934 N/A
7:15 pm 19:15 Clear 26 -3.2 20 -6.5 78 78 NW 10 17 29.97 1015 10 16.0934 N/A
7:35 pm 19:35 Clear 26 -3.4 20 -6.6 79 79 NW 10 17 29.97 1015 10 16.0934 N/A
7:55 pm 19:55 Clear 24 -4.5 19 -7.3 81 81 WNW 9 15 30.03 1017 10 16.0934 N/A
8:15 pm 20:15 Clear 22 -5.7 17 -8.3 82 82 NW 6 9 30.03 1017 10 16.0934 N/A
8:35 pm 20:35 Clear 20 -6.6 16 -9 83 83 WNW 6 9 30.06 1018 10 16.0934 N/A
8:55 pm 20:55 Clear 19 -7.3 15 -9.2 86 86 WNW 9 15 30.09 1019 10 16.0934 N/A
9:15 pm 21:15 Clear 19 -7 16 -8.9 86 86 WNW 7 11 30.09 1019 10 16.0934 N/A
9:35 pm 21:35 Clear 18 -7.7 15 -9.6 86 86 WNW 7 11 30.09 1019 10 16.0934 N/A
9:55 pm 21:55 Clear 16 -9.1 13 -10.8 88 88 WNW 8 13 30.12 1020 10 16.0934 N/A
10:15 pm 22:15 Clear 15 -9.6 12 -11.2 88 88 NW 9 15 30.12 1020 10 16.0934 N/A
10:35 pm 22:35 Clear 14 -9.8 11 -11.4 88 88 WNW 7 11 30.12 1020 10 16.0934 N/A
10:55 pm 22:55 Clear 15 -9.7 12 -11.1 90 90 WNW 8 13 30.12 1020 10 16.0934 N/A
11:15 pm 23:15 Clear 14 -10.1 11 -11.5 90 90 WNW 8 13 30.15 1021 10 16.0934 N/A
11:35 pm 23:35 Clear 14 -10.1 11 -11.6 89 89 W 7 11 30.15 1021 10 16.0934 N/A
11:55 pm 23:55 Partly Cloudy 14 -10.1 11 -11.5 90 90 W 8 13 30.15 1021 10 16.0934 N/A

Powered by AerisWeather